Retour au catalogue

CZ-6A DEB

ActifPO
NORAD 60693·DEBRIS·🇨🇳 China

Lancé Aug 6, 2024 depuis Taiyuan Satellite Launch Center

Loading…

Prochains Passages (prochaines 24 heures)

TLE

FraisSource: Space-Track

Époque: Sep 14, 2026, 10:51 UTC

1 60693U 24140CW  26257.45273045  .00000203  00000-0  10208-3 0  9996
2 60693  89.0084 267.0453 0080949 285.6059  73.6203 14.11194641107963

Suivez CZ-6A DEB en temps réel avec AllMySat

Download on the App Store